Львовский

Россия / Московская область     55°18′47″N   37°31′22″E
темп.,
°C
ветер,
м/с
пор.,
м/с
влажн.,
%
обл.,
%
осадки,
мм/ч
давл.,
гПа
погр.,
м
13 апреля, вт
вт1300:00+9вюв4149287 0.0 1026377
03:00+9юв4129150 0.0 1026272
06:00+8ююв31184100 0.0 1026213
09:00+13ююв41062100 0.0 1025317
12:00+18ююв5842100 0.0 1024832
15:00+20ююв583665 0.0 10232213
18:00+18ююв494418 0.0 1022350
21:00+12юв413621 0.0 1022250
14 апреля, ср
ср1400:00+11ююв4126013 0.0 1022250
03:00+10ююв4136819 0.0 1021274
06:00+8ююв310789 0.0 1021200
09:00+13ююв476792 0.0 1020340
12:00+17ююв465099 0.0 1019909
15:00+18ююв4735100 0.0 10181462
18:00+16юв2447100 0.0 101787
21:00+11юв225965 0.0 101819
15 апреля, чт
чт1500:00+10юв236398 0.0 101746
03:00+8юв226698 0.0 101718
06:00+8вюв2267100 0.0 101730
09:00+12вюв2558100 0.0 1017232
12:00+15ююв3548100 0.0 1016905
15:00+16в2346100 0.0 10161201
18:00+15всв2553100 0.0 1016182
21:00+11всв236766 0.0 101635
16 апреля, пт
пт1600:00+9св4107835 0.2 1017282
03:00+9св5138674 0.2 1017398
06:00+7св5129276 0.1 1018432
09:00+10всв6107769 0.3 1018595
12:00+14всв676298 0.1 1018951
15:00+11св51078100 1.0 1019584
18:00+11св61181100 0.9 1019752
21:00+10всв61484100 1.5 1020634
17 апреля, сб
сб1700:00+8всв51188100 1.0 1021416
03:00+7св5128794 1.6 1022411
06:00+6св41088100 0.0 1023387
09:00+8всв6107798 0.0 1023541
12:00+13всв696410 0.0 1023836
15:00+16всв69556 0.0 10231286
18:00+13всв6105728 0.0 10241105
21:00+9всв5135944 0.0 1026570